Regional Weather Roundup
Issued by NWS Portland, ME

Home | Current Version | Previous Version | Text Only | Print | Product List | Glossary On
Versions: 1 2 3 4 5 6 7 8 9 10 11 12 13 14 15 16 17 18 19 20 21 22 23 24 25 26 27 28 29 30 31 32 33 34 35 36 37 38 39 40 41 42 43 44 45 46 47 48 49 50
000
ASUS41 KGYX 201110
RWRGYX
WEATHER ROUNDUP FOR MAINE AND NEW HAMPSHIRE
NATIONAL WEATHER SERVICE GRAY ME
600 AM EST MON FEB 20 2017

MEZ002-005-006-010-012-015-018-020-021-024-026-027-029-201200-
MAINE

CITY           SKY/WX    TMP DP  RH WIND       PRES   REMARKS
PORTLAND       PTCLDY    33  22  63 N10       30.03R
SANFORD        PTCLDY    29  24  82 N6        30.04R
BAR HARBOR     CLOUDY    32  23  69 N8        29.99R
WISCASSET      CLOUDY    36  21  54 VRB3      30.04R
ROCKLAND       CLOUDY    36  21  55 N7        30.01R
FRYEBURG       CLEAR     29  19  66 NW3       30.03R
LEWISTONAUBURN CLOUDY    33  20  58 N13G21    30.04R
AUGUSTA        CLOUDY    32  19  58 NW15G21   30.02R
WATERVILLE     CLOUDY    34  19  55 NW12      30.00R
BANGOR         MOCLDY    31  24  75 NW8       30.00R
GREENVILLE       N/A     26  21  81 NW13G18   29.93R WCI  15
MILLINOCKET    CLEAR     24  17  74 CALM      29.99R
HOULTON        CLEAR     23  18  81 N5        29.95R
PRESQUE ISLE   CLEAR     22  17  81 NW10      29.98R WCI  11
FRENCHVILLE    CLEAR     20  13  74 N17G28    29.94R WCI   5
CARIBOU        CLEAR     22  15  75 N14       29.96R WCI   9
$$

NHZ002-005-008-009-011-012-014-201200-
NEW HAMPSHIRE

CITY           SKY/WX    TMP DP  RH WIND       PRES   REMARKS
PORTSMOUTH     PTCLDY    35  22  60 NE3       30.02R
ROCHESTER      CLEAR     34  21  59 NW6       30.02R
NASHUA         CLEAR     35  23  61 NW10      30.05R
MANCHESTER     PTCLDY    36  21  54 VRB7      30.03R
CONCORD        PTCLDY    34  20  56 N3        30.04R
LACONIA        CLEAR     34  19  54 MISG      30.04R
PLYMOUTH       CLOUDY    33  21  59 NW8       30.04R
BERLIN         CLOUDY    29  17  61 NW10      30.03R WCI  20
WHITEFIELD     CLOUDY    30  16  56 NW15      30.06R WCI  19
JAFFREY        CLEAR     33  20  58 NW6       30.02R
KEENE          CLEAR     28  25  88 N3        30.06R
LEBANON        PTCLDY    34  21  59 N12       30.07R
MT WASHINGTON  FOG        5   5 100 NW56        N/A  VSB 1/16WCI -25
$$

VTZ005-007-008-201200-
VERMONT

CITY           SKY/WX    TMP DP  RH WIND       PRES   REMARKS
ST JOHNSBURY     N/A     31  19  61 MISG      30.08R
MONTPELIER     CLOUDY    29  20  69 NW9G20    30.11R
BURLINGTON     CLOUDY    32  20  61 NW17      30.15R
$$

MAZ007-012-024-CTZ003-RIZ002-NYZ038-NYZ072-201200-
SOUTHERN NEW ENGLAND AND NY

CITY           SKY/WX    TMP DP  RH WIND       PRES   REMARKS
BOSTON         PTCLDY    39  25  57 NW12G21   30.04R
WORCESTER      PTCLDY    35  24  64 NW10      30.01R
NANTUCKET      CLEAR     39  31  72 N10       30.00R
PROVIDENCE     PTCLDY    41  27  57 NW7       30.04R
HARTFORD       PTCLDY    36  29  75 W6        30.06R
ALBANY         MOCLDY    36  27  69 N7        30.13R
NEW YORK CITY  PTCLDY    46  32  58 NW12      30.10R
$$

ANZ081-ANZ082-ANZ150-NHZ014-MEZ023>029-201200-
COASTAL MARINE OBSERVATIONS

STATION/POSITION TIME  TEMP    WIND        PRES    WAVE
                       AIR SEA DIR/SP/G            HT/PER
                 (UTC) (F)     (DEG/KT/KT) (MB)    (FT/S)
MOUNT DESERT ROC 1100   34                 1015.2R
MATINICUS ROCK   1000   36     340/ 19/ 21 1014.4R
ISLE OF SHOALS   1000   39      20/ 10/ 13 1015.6R
JEFFREYS LEDGE   1006      43                N/A     4/ 4
CASHES LEDGE BUO 0950   38 42              1014.1    5/ 5
GEORGES BANK BUO 1050   45 44              1012.4R   5/ 9
$$

.............KEY..............
   WCI - WIND CHILL
   TC  - TEMPERATURE IN CELSIUS
   VSB - VISIBILITY IN MILES
   HX  - HEAT INDEX
   FAIR- INDICATES FEW OR NO CLOUDS BELOW 12,000 FT, WITH NO
         SIGNIFICANT WEATHER AND/OR OBSTRUCTIONS TO VISIBILITY.






USA.gov is the U.S. government's official web portal to all federal, state and local government web resources and services.